Regional Weather Roundup
Issued by NWS Burlington, VT

Current Version | Previous Version | Text Only | Print | Product List | Glossary On
Versions: 1 2 3 4 5 6 7 8 9 10 11 12 13 14 15 16 17 18 19 20 21 22 23 24 25 26 27 28 29 30 31 32 33 34 35 36 37 38 39 40 41 42 43 44 45 46 47 48 49 50
000 ASUS41 KBTV 282030 RWRBTV VERMONT REGIONAL WEATHER ROUNDUP NATIONAL WEATHER SERVICE BURLINGTON VT 400 PM EDT SUN MAY 28 2017 NOTE: "FAIR" INDICATES FEW OR NO CLOUDS BELOW 12,000 FEET WITH NO SIGNIFICANT WEATHER AND/OR OBSTRUCTIONS TO VISIBILITY. * THESE REPORTS ARE NOT UNDER NWS QUALITY CONTROL AND/OR DO NOT REPORT WEATHER SUCH AS PRECIPITATION AND FOG. VTZ001>019-282100- _____VERMONT_____ CITY SKY/WX TMP DP RH WIND PRES REMARKS BURLINGTON PTSUNNY 77 51 40 S8 29.87F MONTPELIER CLOUDY 73 45 36 SE9 29.94F MORRISVILLE MOSUNNY 73 46 38 S7 29.90F ST. JOHNSBURY* N/A 75 46 35 MISG 29.88F LYNDONVILLE* FAIR 73 46 38 SE8 29.93S MIDDLEBURY* CLOUDY 71 54 53 S12G17 29.89S RUTLAND* CLOUDY 70 52 52 S9 29.92F SPRINGFIELD CLOUDY 70 52 52 S7 29.93S HIGHGATE* FAIR 76 51 41 SW8 29.87S NEWPORT* FAIR 74 43 33 S6 29.90S BENNINGTON CLOUDY 70 55 59 SE7 29.92S SUTTON* N/A 73 N/A N/A MISG N/A ISLAND POND* N/A 75 N/A N/A SW1 N/A GALLUP MILLS* N/A 73 N/A N/A MISG N/A UNION VILLAGE* N/A 70 N/A N/A MISG N/A MT. MANSFIELD* N/A 63 N/A N/A SE8 N/A _____LAKE CHAMPLAIN_____ CITY SKY/WX TMP DP RH WIND PRES REMARKS BURTON ISLAND* N/A 68 54 60 S5 N/A COLCHESTER RF* N/A 70 52 52 S12 N/A DIAMOND ISL* N/A 73 46 38 S9 N/A $$ NYZ007-026>031-035-052-083-087-282100- _____NORTHERN NEW YORK_____ CITY SKY/WX TMP DP RH WIND PRES REMARKS PLATTSBURGH MOSUNNY 75 51 43 SE9 29.86F SARANAC LAKE PTSUNNY 72 44 36 S9 29.87F MASSENA PTSUNNY 78 54 43 NE5 29.83F OGDENSBURG* FAIR 77 55 46 S5 29.82F POTSDAM* CLOUDY 75 57 53 SW7 29.83F STARK FALLS* N/A 68 N/A N/A S7 N/A WATERTOWN MOSUNNY 76 59 55 VRB5 29.81F FT DRUM PTSUNNY 73 54 50 SE9 29.83F ALBANY CLOUDY 72 55 55 S6 29.90S GLENS FALLS CLOUDY 73 56 54 S7 29.89F $$ NHZ002-005-011-282100- _____NEW HAMPSHIRE_____ CITY SKY/WX TMP DP RH WIND PRES REMARKS LEBANON PTSUNNY 75 53 46 S15 29.91S KEENE CLOUDY 69 56 62 VRB5 29.94S MT WASHINGTON CLOUDY 46 41 81 S10 N/A PLYMOUTH FAIR 74 51 44 E7 29.92S WHITEFIELD CLOUDY 69 46 43 S7 29.92S $$ _____REGIONAL QUEBEC LOCATIONS_____ CITY SKY/WX TMP DP RH WIND PRES REMARKS MONTREAL PTSUNNY 77 52 41 S9G17 29.84F QUEBEC CITY CLOUDY 59 46 63 E16G23 29.93S SHERBROOKE MOSUNNY 77 48 36 E5 29.87F _____REGIONAL ONTARIO LOCATIONS_____ CITY SKY/WX TMP DP RH WIND PRES REMARKS OTTAWA MOSUNNY 73 52 46 S12 29.83S ______KEY______ VSB - VISIBILITY IN MILES WCI - WIND CHILL INDEX HX - HEAT INDEX $$ NNNN

USA.gov is the U.S. government's official web portal to all federal, state and local government web resources and services.